Location: Kriens
(47.0354°N, 8.2763°E)
Time: 06:23:28
(UTC+00:00)

Daily predictions for brighter satellites

Satellite Brightness Start Highest point End
(mag) Time Altitude Azimuth Time Altitude Azimuth Time Altitude Azimuth
USA 238 DEB 3.9 18:59:53 10° S 19:06:08 47° ESE 19:12:38 10° NE
USA 238 3.9 19:00:00 10° S 19:06:14 47° ESE 19:12:44 10° NE
IRIDIUM 114 4.3 19:02:17 10° S 19:07:27 71° E 19:12:40 10° N
Cosmos 1867 3.6 19:02:50 10° SSW 19:08:13 69° ESE 19:13:39 10° NE
MOS 1 Rocket 3.8 19:02:53 10° NNE 19:08:21 84° WNW 19:13:34 10° SSW
CENTAUR R/B 3.2 19:05:03 10° S 19:10:02 30° ESE 19:15:43 10° NE
Cosmos 1666 Rocket 3.8 19:06:15 10° SSE 19:10:23 47° E 19:14:35 10° NNE
Cosmos 1954 Rocket 4.3 19:07:57 10° S 19:13:02 48° ESE 19:18:09 10° NNE
DMSP B5D2-2 4.2 19:09:31 10° NNE 19:14:42 58° E 19:19:52 10° S
IRIDIUM 103 4.3 19:11:22 10° S 19:16:35 85° E 19:21:51 10° N
FREGAT/IRIS 2.7 19:14:30 10° S 19:17:06 65° W 19:19:44 10° NNW
Cosmos 1821 Rocket 4.0 19:11:43 10° S 19:17:52 81° E 19:24:10 10° N
Ariane Rocket 3.3 19:13:08 10° S 19:18:10 72° WSW 19:23:15 10° NNW
Cosmos 405 Rocket 4.2 19:15:49 10° SE 19:18:23 18° E 19:20:59 10° NE
Intercosmos 25 3.0 19:15:13 10° N 19:18:58 89° E 19:22:07 10° S
Cosmos 1812 3.4 19:16:41 10° NNW 19:20:29 57° W 19:24:15 10° S
Cosmos 1805 Rocket 4.1 19:16:35 10° SSW 19:21:00 67° W 19:25:27 10° N
Cosmos 407 Rocket 3.9 19:18:06 10° SSW 19:23:24 71° WNW 19:28:40 10° NNE
SJ-6B 3.2 19:22:09 10° S 19:26:09 67° WSW 19:30:05 10° NNW
Cosmos 1190 Rocket 4.2 19:22:18 10° SSW 19:27:35 80° WNW 19:32:57 10° NNE
Cosmos 2333 Rocket 4.5 19:25:35 10° N 19:27:38 12° NNE 19:29:41 10° NE
NOSS 2 (A) 4.0 19:25:44 10° NW 19:28:18 80° SW 19:30:20 13° SE
Cosmos 1763 Rocket 4.3 19:23:45 10° N 19:28:42 37° ENE 19:33:12 12° SE
deb Kosmos-1763 4.1 19:25:14 10° SSW 19:28:51 81° WNW 19:32:32 10° NNE
Cosmos 1140 Rocket 3.7 19:24:10 10° SSW 19:29:25 80° WNW 19:34:42 10° NNE
Cosmos 1437 Rocket 4.4 19:27:01 10° NNE 19:29:41 18° ENE 19:31:55 12° ESE
FALCON 9 DEB 4.4 19:27:04 10° W 19:30:26 43° NNW 19:33:49 10° NE
Resurs 1-3 3.6 19:26:52 10° SSE 19:31:13 72° ENE 19:35:36 10° N
OBJECT-B 0.8 19:30:32 10° SSE 19:33:49 82° ENE 19:37:08 10° N
Cosmos 2084 Rocket 4.1 19:31:12 10° S 19:34:55 32° ESE 19:38:43 10° ENE
Cosmos 1633 Rocket 3.0 19:32:49 10° S 19:37:13 76° E 19:41:38 10° NNE
Cosmos 1184 Rocket 2.8 19:34:50 10° S 19:38:05 60° E 19:41:21 10° NNE
Cosmos 921 Rocket 2.9 19:37:05 10° NNW 19:41:17 69° ENE 19:45:04 12° SSE
Cosmos 2123 Rocket 4.0 19:36:16 10° N 19:42:32 81° E 19:48:48 10° S
Cosmos 1535 Rocket 4.4 19:37:34 10° S 19:43:39 74° E 19:49:45 10° NNE
Meteor 1-27 Rocket 4.4 19:41:58 10° NNW 19:47:48 59° W 19:53:36 10° S
Cosmos 1605 Rocket 4.0 19:46:08 10° S 19:52:06 58° E 19:58:04 10° NNE
Okean 1 3.8 19:49:44 10° N 19:53:37 42° ENE 19:56:09 19° SE
CZ-2C R/B 3.1 19:49:10 10° N 19:54:18 63° WNW 19:59:29 10° SSW
NOSS 3-2 (A) 3.4 19:50:29 10° SW 19:56:12 88° NW 20:02:48 10° NE
USA 267 3.8 19:52:12 10° ENE 19:58:01 33° SE 20:03:49 10° SSW
Cosmos 2219 Rocket 4.3 19:55:03 10° N 19:58:16 15° NE 20:01:30 10° ENE
Cosmos 540 Rocket 4.3 19:56:51 10° N 20:01:37 36° ENE 20:04:39 19° ESE
SL-16 R/B 2.4 19:56:55 10° NNW 20:02:34 60° ENE 20:06:27 20° SE
SL-4 R/B 3.0 19:59:31 10° W 20:03:21 42° N 20:06:55 10° ENE
BREEZE-M DEB (TANK) 2.7 20:01:35 10° W 20:04:14 65° N 20:10:54 10° E
SL-27 R/B 2.9 20:04:28 26° SE 20:05:38 34° ESE 20:08:40 10° NE
Cosmos 2242 Rocket 3.6 20:01:54 10° N 20:06:18 60° ENE 20:09:08 21° SSE
NOSS 3-2 (C) 3.3 20:01:11 10° SSW 20:06:51 73° SE 20:13:22 10° NE
Cosmos 1470 Rocket 3.5 20:02:38 10° S 20:07:02 87° E 20:11:26 10° N
Cosmos 2082 Rocket 3.4 20:06:03 10° SW 20:11:31 46° NW 20:16:59 10° NNE
BREEZE-M DEB (TANK) 2.3 20:09:15 10° WNW 20:11:48 49° N 20:12:31 30° ENE
ERS-1 Rocket 3.6 20:16:14 24° ESE 20:18:41 39° ENE 20:23:21 10° N
Meteor 1-14 Rocket 4.4 20:13:21 11° S 20:18:50 59° E 20:24:42 10° NNE
Cosmos 2322 Rocket 2.3 20:14:13 10° NNW 20:19:55 67° ENE 20:23:15 25° SE
Cosmos 1850 Rocket 3.9 20:18:34 10° SSW 20:23:51 78° ESE 20:29:08 10° NNE
Meteor 1-25 Rocket 4.4 20:20:04 10° SSW 20:25:39 76° WNW 20:31:20 10° N
Cosmos 1500 3.9 20:25:36 32° ESE 20:25:55 33° E 20:29:19 10° NNE
SPOT 1/Viking Rocket 3.6 20:23:32 25° SSE 20:26:34 67° ENE 20:31:46 10° N
Cosmos 841 Rocket 3.7 20:22:12 10° NNW 20:27:24 58° ENE 20:29:56 29° SE
USA 32 4.3 20:23:05 10° SSW 20:28:17 69° W 20:33:32 10° N
Cosmos 2360 Rocket 2.8 20:23:34 10° NNW 20:29:02 45° NE 20:31:48 26° ESE
Terra 2.9 20:27:56 25° ESE 20:29:35 31° ENE 20:33:46 10° N
USA 276 2.0 20:26:30 10° WNW 20:29:40 71° SSW 20:30:10 56° SE
Meteor 1-18 Rocket 4.2 20:24:24 10° NNW 20:30:00 84° W 20:33:52 21° S
X-37B 1.5 20:27:24 10° W 20:30:19 34° SSW 20:30:22 34° SSW
Okean 3 4.5 20:27:21 10° N 20:31:13 31° ENE 20:32:07 28° E
IGS 5A 3.4 20:29:39 29° SSE 20:31:46 88° W 20:35:57 10° NNW
ATLAS 3B R/B 2.9 20:25:52 10° S 20:32:00 43° ESE 20:38:11 10° NE
Cosmos 1238 Rocket 3.0 20:30:32 16° SSW 20:32:39 47° W 20:35:38 10° N
USA 234 3.7 20:29:00 16° E 20:34:08 55° NNE 20:40:30 10° NW
Cosmos 468 Rocket 4.4 20:31:08 10° NNW 20:36:21 58° WSW 20:39:42 21° S
Cosmos 1666 4.4 20:37:36 19° ENE 20:37:36 19° ENE 20:39:38 10° NE
Cosmos 1980 Rocket 4.1 20:32:59 10° NW 20:37:28 25° WSW 20:41:56 10° SSW
Cosmos 44 3.3 20:33:21 10° NW 20:38:19 83° SW 20:40:36 34° SSE
Resurs 01 Rocket 3.0 20:34:56 11° SSW 20:38:50 36° W 20:42:58 10° NNW
Iridium 4 Rocket 3.8 20:38:44 31° E 20:39:04 32° E 20:42:46 10° NNE
Lacrosse 5 2.5 20:34:50 10° WNW 20:39:39 44° SW 20:41:50 28° S
Cosmos 1602 4.3 20:37:45 13° SSW 20:41:08 58° WNW 20:45:03 10° N
CARTOSAT-1 3.7 20:40:31 40° SE 20:41:50 59° ENE 20:46:06 10° N
Cosmos 1153 Rocket 4.4 20:36:52 12° S 20:42:36 89° E 20:48:50 10° N
GP-B 4.1 20:40:21 10° N 20:44:38 46° W 20:48:37 11° SSW
CZ-4B DEB 4.2 20:46:38 65° ESE 20:46:51 68° ENE 20:50:11 10° N
Cosmos 1933 Rocket 4.3 20:43:20 10° SSW 20:47:39 51° WNW 20:52:01 10° N
Cosmos 2061 Rocket 4.4 20:50:45 34° SE 20:52:46 44° E 20:58:34 10° NNE
Cosmos 405 Rocket 4.3 20:50:43 10° SW 20:54:06 34° WNW 20:57:35 10° N
Spot 2 Rocket 3.9 20:51:17 25° S 20:54:10 60° WSW 20:59:14 10° NNW
Cosmos 1814 Rocket 3.9 20:49:50 10° NNW 20:55:06 80° ENE 20:56:56 42° SSE
COSMOS 2428 4.1 20:50:24 10° N 20:55:21 28° NE 20:57:48 21° E
Cosmos 1802 Rocket 4.1 20:54:58 33° SSE 20:57:42 58° E 21:03:53 10° NNE
Cosmos 1515 4.4 20:54:39 10° NNW 20:58:21 48° W 20:59:36 34° SW
Cosmos 1869 Rocket 3.5 20:57:44 41° S 20:59:14 85° E 21:03:44 10° N
Cosmos 2237 Rocket 4.4 20:55:59 10° N 20:59:17 16° NE 21:02:35 10° ENE
CENTAUR R/B 3.0 20:54:07 10° SW 21:00:06 64° NW 21:07:17 10° NE
Okean 1-7 3.5 20:56:00 10° NNW 21:00:14 56° W 21:01:51 33° SSW
Cosmos 1437 Rocket 3.9 21:02:35 10° NNW 21:06:05 36° W 21:07:19 28° SW
Cosmos 1570 Rocket 4.4 21:07:51 10° NNW 21:13:06 60° WSW 21:14:58 38° SSW
Cosmos 2333 Rocket 2.9 21:08:04 10° NNW 21:13:34 43° NE 21:15:19 34° E
ATLAS 5 CENTAUR R/B 2.4 21:10:58 10° NW 21:13:44 59° NE 21:14:58 43° ESE
SPOT 5 2.7 21:17:39 56° SSW 21:18:25 70° WSW 21:22:52 10° NNW
Cosmos 1066 Rocket 4.4 21:14:55 10° N 21:20:28 53° ENE 21:21:30 46° ESE
Meteor 1-5 Rocket 4.3 21:18:35 31° SSW 21:21:36 83° W 21:27:33 10° N
Cosmos 2208 Rocket 4.4 21:19:27 10° NNW 21:24:35 57° WSW 21:25:58 43° SSW
Cosmos 1733 Rocket 3.3 21:29:41 54° ENE 21:29:41 54° ENE 21:33:36 10° NNE
Cosmos 1356 4.4 21:30:29 42° N 21:30:29 42° N 21:32:52 10° N
ERBS 4.0 21:27:24 10° NW 21:30:13 27° NNE 21:30:13 27° NNE
Meteor 1-11 Rocket 3.6 21:31:46 51° S 21:33:19 85° E 21:39:10 10° NNE
Cosmos 968 Rocket 3.9 21:37:25 44° E 21:37:25 44° E 21:41:39 10° NNE
Lacrosse 4 Rocket 1.6 21:37:37 63° NE 21:37:37 63° NE 21:41:11 10° NNE
Tsikada Rocket 4.0 21:30:57 10° N 21:37:18 74° E 21:38:46 54° SSE
ALOS 2 4.5 21:39:37 19° ENE 21:39:37 19° ENE 21:42:42 10° NNE
USA 267 3.2 21:34:54 10° NE 21:41:28 83° NW 21:48:01 10° WSW
SL-4 R/B 2.7 21:39:41 10° WNW 21:42:58 46° NNW 21:42:58 46° NNW
Cosmos 2219 Rocket 2.3 21:37:47 10° NNW 21:43:27 62° ENE 21:44:23 54° ESE
Cosmos 2173 Rocket 4.5 21:41:11 25° SW 21:44:44 55° WNW 21:50:44 10° N
SL-16 R/B 3.9 21:41:50 10° NW 21:46:13 23° WSW 21:48:20 19° SW
Cosmos 1242 Rocket 3.6 21:48:13 10° NNW 21:50:53 45° NNW 21:50:53 45° NNW
Meteor 1-23 Rocket 4.2 21:50:33 10° NNW 21:56:24 85° W 21:57:14 67° S
Cosmos 2322 3.6 21:51:09 10° NNW 21:56:50 77° WSW 21:57:25 69° SSW
Cosmos 1725 Rocket 4.0 21:55:17 47° SSW 21:57:14 77° W 22:03:35 10° N
ERS-1 Rocket 4.3 21:56:14 26° WSW 21:57:34 29° W 22:01:57 10° NW
Spot 4 4.2 21:58:19 53° ENE 21:58:19 53° ENE 22:02:53 10° N
Cosmos 1833 4.5 21:58:11 34° SW 22:00:38 64° WNW 22:06:18 10° NNE
Cosmos 836 Rocket 4.3 21:56:52 10° NNW 22:02:07 89° WSW 22:02:12 87° S
Cosmos 1536 3.7 22:03:04 47° NW 22:03:04 47° NW 22:06:30 10° N
Cosmos 2322 Rocket 3.9 21:59:15 10° NW 22:03:25 21° W 22:05:03 19° WSW
Cosmos 2016 Rocket 4.5 22:02:20 35° SW 22:04:57 57° WNW 22:11:16 10° N
Cosmos 1378 Rocket 3.9 22:01:02 10° N 22:04:52 65° N 22:04:52 65° N
Terra 2.9 22:06:49 34° WSW 22:07:16 34° W 22:11:37 10° NNW
COSMOS 2487 4.4 22:12:28 28° NNW 22:12:28 28° NNW 22:14:43 10° N
Cosmos 2333 4.4 22:06:00 10° NNW 22:11:42 60° WSW 22:12:06 59° SW
Cosmos 1666 4.3 22:12:27 29° WNW 22:12:27 29° WNW 22:15:33 10° N
Cosmos 2360 Rocket 3.3 22:07:54 10° NW 22:12:51 32° WSW 22:13:33 31° WSW
SL-16 R/B 4.2 22:10:51 10° N 22:15:02 20° NE 22:17:41 15° ENE
USA 234 3.2 22:16:20 59° S 22:17:06 63° SW 22:23:36 10° WNW
MOS 1-B Rocket 3.7 22:16:55 10° NNE 22:22:32 82° WNW 22:23:10 71° SW
ATLAS 3B R/B 3.4 22:16:14 10° WSW 22:22:37 50° NW 22:29:06 10° NE
Cosmos 1354 Rocket 4.2 22:23:58 61° ENE 22:23:58 61° ENE 22:28:34 10° NNE
Cosmos 1975 Rocket 4.1 22:23:54 10° N 22:27:17 42° NE 22:27:17 42° NE
Cosmos 2297 Rocket 3.6 22:32:11 26° ENE 22:32:11 26° ENE 22:35:28 10° NE
Meteor 1-21 4.4 22:27:10 10° N 22:32:56 62° ENE 22:33:00 62° E
Cosmos 1743 4.2 22:35:20 36° NNW 22:35:20 36° NNW 22:37:52 10° N
Cosmos 1975 4.4 22:36:14 32° NNE 22:36:14 32° NNE 22:38:33 10° NNE
Meteor 2-9 Rocket 4.4 22:35:06 58° ENE 22:35:06 58° ENE 22:40:22 10° NNE
Cosmos 2233 Rocket 4.3 22:34:08 51° SW 22:35:25 62° WNW 22:41:43 10° N
Thor Agena Rocket 3.6 22:30:23 10° NNE 22:35:03 74° NNE 22:35:03 74° NNE
Cosmos 1980 3.9 22:31:06 10° NNW 22:36:45 62° ENE 22:36:58 61° ENE
Timation 2 Rocket 4.1 22:39:51 56° E 22:39:51 56° E 22:45:08 10° NE
COSMOS 2428 3.0 22:34:21 10° NNW 22:39:48 58° WSW 22:39:48 58° WSW
Cosmos 44 Rocket 4.2 22:39:13 10° NW 22:42:56 41° W 22:42:56 41° W
Cosmos 2237 Rocket 2.3 22:38:52 10° NNW 22:44:31 66° ENE 22:44:34 66° ENE
Cosmos 2219 4.1 22:46:31 38° ENE 22:46:31 38° ENE 22:50:32 10° NE
Cosmos 1464 Rocket 4.0 22:46:12 66° E 22:46:15 66° E 22:52:23 10° NNE
NOSS 0 Rocket 3.8 22:45:28 10° NNW 22:51:43 79° WSW 22:51:50 79° SW
Nadezhda 4 Rocket 4.1 22:48:24 10° N 22:54:37 59° ENE 22:54:56 58° E
Geosat 4.5 22:58:12 53° WNW 22:58:12 53° WNW 23:02:20 10° NW
Cosmos 2333 Rocket 3.2 22:52:34 10° NW 22:57:19 34° W 22:57:19 34° W
Cosmos 1503 Rocket 4.4 22:58:14 56° WNW 22:58:26 56° WNW 23:03:44 10° NNE
Cosmos 1513 Rocket 4.4 23:07:07 80° SW 23:07:29 85° W 23:13:57 10° N
DNEPR-1 R/B 4.2 23:09:34 10° NW 23:14:43 67° NNW 23:14:43 67° NNW
ALOS 2 3.9 23:17:00 36° NW 23:17:00 36° NW 23:19:54 10° NNW
Lacrosse 4 Rocket 4.2 23:13:52 11° WNW 23:16:14 16° NW 23:18:48 10° N
Cosmos 1092 Rocket 4.3 23:10:16 10° N 23:16:22 54° ENE 23:16:44 53° E
Helios 1A 4.2 23:18:09 40° N 23:18:09 40° N 23:20:58 10° N
Cosmos 2034 Rocket 3.9 23:19:27 83° ESE 23:19:34 84° E 23:25:57 10° N
Cosmos 2227 Rocket 2.6 23:21:59 54° ENE 23:21:59 54° ENE 23:26:41 10° NNE
USA 267 4.3 23:17:59 10° NE 23:24:05 43° NNW 23:30:10 10° W
Cosmos 2219 Rocket 3.8 23:22:35 10° NW 23:26:05 22° W 23:26:05 22° W
Meteor 1-12 Rocket 4.3 23:28:42 78° ENE 23:28:42 78° ENE 23:34:34 10° NNE
Resurs 1-4 Rocket 4.4 23:33:20 10° ENE 23:35:17 12° E 23:35:32 12° E
Cosmos 1607 3.9 23:40:55 10° NW 23:47:24 84° WSW 23:47:26 84° SW
Cosmos 2082 4.1 23:48:47 53° ENE 23:48:47 53° ENE 23:53:31 10° NNE
Cosmos 1375 Rocket 4.4 23:48:19 79° SE 23:48:25 79° ESE 23:55:02 10° NE
USA 229 DEB 4.3 23:53:16 40° ESE 23:53:16 40° ESE 23:59:05 10° NE
USA 229 4.3 23:53:24 40° ESE 23:53:24 40° ESE 23:59:09 10° NE
Helios 1B rocket 4.0 23:51:55 10° NNE 23:54:18 31° NE 23:54:18 31° NE
